timestamp,wind_dir_avg,wind_spd_avg,wind_spd_max_dir,wind_spd_gust,battery_voltage,lat,long
2024-04-10 00:04:00+00:00,356.0,8.69,351.0,10.31,12.25,47.59359,-54.27349
2024-04-10 00:14:00+00:00,0.0,11.13,2.0,12.79,12.17,47.59359,-54.27349
2024-04-10 00:24:00+00:00,0.0,9.83,4.0,11.9,12.17,47.59359,-54.27349
2024-04-10 00:34:00+00:00,355.0,10.02,358.0,12.52,12.17,47.59359,-54.27349
2024-04-10 00:44:00+00:00,358.0,11.26,3.0,12.32,12.17,47.59359,-54.27349
2024-04-10 00:54:00+00:00,359.0,12.3,358.0,14.34,12.17,47.59359,-54.27349
2024-04-10 01:04:00+00:00,0.0,12.32,3.0,14.41,12.17,47.59359,-54.27349
2024-04-10 01:14:00+00:00,0.0,11.52,2.0,13.79,12.17,47.59359,-54.27349
2024-04-10 01:24:00+00:00,356.0,12.06,355.0,13.89,12.17,47.59359,-54.27349
2024-04-10 01:34:00+00:00,6.0,11.43,3.0,13.5,12.17,47.59359,-54.27349
2024-04-10 01:44:00+00:00,359.0,11.96,1.0,13.34,12.17,47.59359,-54.27349
2024-04-10 01:54:00+00:00,3.0,12.74,5.0,14.5,12.17,47.59359,-54.27349
2024-04-10 02:04:00+00:00,349.0,10.4,348.0,13.28,12.17,47.59359,-54.27349
2024-04-10 02:14:00+00:00,357.0,11.57,352.0,13.81,12.17,47.59359,-54.27349
2024-04-10 02:24:00+00:00,358.0,11.29,3.0,14.02,12.17,47.59359,-54.27349
2024-04-10 02:34:00+00:00,3.0,11.69,3.0,14.4,12.17,47.59359,-54.27349
2024-04-10 02:44:00+00:00,359.0,11.32,356.0,14.48,12.17,47.59359,-54.27349
2024-04-10 02:54:00+00:00,4.0,12.26,9.0,14.41,12.17,47.59359,-54.27349
2024-04-10 03:04:00+00:00,7.0,11.24,12.0,12.63,12.17,47.59359,-54.27349
2024-04-10 03:14:00+00:00,353.0,11.32,352.0,12.82,12.17,47.59359,-54.27349
2024-04-10 03:24:00+00:00,354.0,10.26,350.0,12.3,12.17,47.59359,-54.27349
2024-04-10 03:34:00+00:00,2.0,10.46,3.0,11.82,12.17,47.59359,-54.27349
2024-04-10 03:44:00+00:00,2.0,10.17,357.0,11.63,12.17,47.59359,-54.27349
2024-04-10 03:54:00+00:00,351.0,8.92,351.0,10.94,12.17,47.59359,-54.27349
2024-04-10 04:04:00+00:00,355.0,11.15,349.0,12.42,12.17,47.59359,-54.27349
2024-04-10 04:14:01+00:00,352.0,12.8,352.0,14.49,12.09,47.59359,-54.27349
2024-04-10 04:24:01+00:00,354.0,12.31,0.0,14.44,12.09,47.59359,-54.27349
2024-04-10 04:34:01+00:00,358.0,11.16,349.0,13.1,12.09,47.59359,-54.27349
2024-04-10 04:44:01+00:00,7.0,11.38,10.0,13.16,12.09,47.59359,-54.27349
2024-04-10 04:54:01+00:00,2.0,11.65,1.0,13.35,12.09,47.59359,-54.27349
2024-04-10 05:04:01+00:00,3.0,10.47,2.0,12.27,12.09,47.59359,-54.27349
2024-04-10 05:14:00+00:00,346.0,10.47,343.0,11.99,12.09,47.59359,-54.27349
2024-04-10 05:24:00+00:00,353.0,10.22,353.0,11.2,12.09,47.59359,-54.27349
2024-04-10 05:34:00+00:00,353.0,10.26,354.0,12.02,12.09,47.59359,-54.27349
2024-04-10 05:44:00+00:00,346.0,10.11,346.0,11.17,12.09,47.59359,-54.27349
2024-04-10 05:54:00+00:00,347.0,10.74,345.0,11.81,12.09,47.59359,-54.27349
2024-04-10 06:04:00+00:00,349.0,8.87,344.0,10.55,12.09,47.59359,-54.27349
2024-04-10 06:14:00+00:00,346.0,9.01,350.0,9.61,12.09,47.59359,-54.27349
2024-04-10 06:24:00+00:00,351.0,10.24,357.0,11.81,12.09,47.59359,-54.27349
2024-04-10 06:34:00+00:00,357.0,11.05,0.0,12.52,12.09,47.59359,-54.27349
2024-04-10 06:44:00+00:00,352.0,10.26,352.0,11.94,12.09,47.59359,-54.27349
2024-04-10 06:54:00+00:00,348.0,10.25,346.0,11.76,12.09,47.59359,-54.27349
2024-04-10 07:04:00+00:00,359.0,12.75,359.0,15.84,12.09,47.59359,-54.27349
2024-04-10 07:14:00+00:00,359.0,10.22,11.0,11.7,12.01,47.59359,-54.27349
2024-04-10 07:24:00+00:00,352.0,8.8,357.0,10.23,12.01,47.59359,-54.27349
2024-04-10 07:34:00+00:00,358.0,11.48,355.0,13.16,12.01,47.59359,-54.27349
2024-04-10 07:44:00+00:00,353.0,8.99,345.0,10.54,12.01,47.59359,-54.27349
2024-04-10 07:54:00+00:00,348.0,9.42,352.0,10.71,12.01,47.59359,-54.27349
2024-04-10 08:04:00+00:00,353.0,10.49,354.0,12.31,12.01,47.59359,-54.27349
2024-04-10 08:14:00+00:00,13.0,10.56,19.0,13.12,12.01,47.59359,-54.27349
2024-04-10 08:24:00+00:00,6.0,8.66,11.0,10.97,12.01,47.59359,-54.27349
2024-04-10 08:34:00+00:00,3.0,9.15,9.0,10.54,12.01,47.59359,-54.27349
2024-04-10 08:44:00+00:00,6.0,9.11,10.0,10.73,12.01,47.59359,-54.27349
2024-04-10 08:54:00+00:00,6.0,9.01,3.0,10.84,12.01,47.59359,-54.27349
2024-04-10 09:04:00+00:00,9.0,11.4,20.0,13.45,12.01,47.59359,-54.27349
2024-04-10 09:14:01+00:00,8.0,11.98,18.0,13.38,11.93,47.59359,-54.27349
2024-04-10 09:24:01+00:00,355.0,10.03,357.0,11.35,11.93,47.59359,-54.27349
2024-04-10 09:34:01+00:00,353.0,9.83,357.0,11.17,11.93,47.59359,-54.27349
2024-04-10 09:44:01+00:00,353.0,9.96,351.0,11.02,11.93,47.59359,-54.27349
2024-04-10 09:54:01+00:00,349.0,10.98,345.0,13.37,11.93,47.59359,-54.27349
2024-04-10 10:04:01+00:00,8.0,9.76,13.0,11.13,11.93,47.59359,-54.27349
2024-04-10 10:14:00+00:00,12.0,8.99,14.0,10.49,12.01,47.59359,-54.27349
2024-04-10 10:24:00+00:00,4.0,9.07,18.0,10.82,12.01,47.59359,-54.27349
2024-04-10 10:34:00+00:00,358.0,8.33,357.0,10.03,12.01,47.59359,-54.27349
2024-04-10 10:44:00+00:00,343.0,8.8,344.0,10.26,12.01,47.59359,-54.27349
2024-04-10 10:54:00+00:00,345.0,9.3,341.0,10.67,12.01,47.59359,-54.27349
2024-04-10 11:04:00+00:00,356.0,9.26,350.0,10.57,12.01,47.59359,-54.27349
2024-04-10 11:14:00+00:00,349.0,8.89,353.0,10.35,13.92,47.59359,-54.27349
2024-04-10 11:24:00+00:00,349.0,7.69,356.0,10.05,13.92,47.59359,-54.27349
2024-04-10 11:34:00+00:00,344.0,8.02,348.0,8.89,13.92,47.59359,-54.27349
2024-04-10 11:44:00+00:00,343.0,8.21,341.0,10.86,13.92,47.59359,-54.27349
2024-04-10 11:54:00+00:00,343.0,8.87,343.0,9.83,13.92,47.59359,-54.27349
2024-04-10 12:04:00+00:00,331.0,8.8,334.0,10.08,13.92,47.59359,-54.27349
2024-04-10 12:14:01+00:00,341.0,6.96,347.0,7.62,13.53,47.59359,-54.27349
2024-04-10 12:24:01+00:00,359.0,7.11,356.0,8.53,13.53,47.59359,-54.27349
2024-04-10 12:34:01+00:00,339.0,9.12,338.0,10.37,13.53,47.59359,-54.27349
2024-04-10 12:44:01+00:00,337.0,10.85,343.0,12.18,13.53,47.59359,-54.27349
2024-04-10 12:54:01+00:00,341.0,8.59,344.0,10.52,13.53,47.59359,-54.27349
2024-04-10 13:04:01+00:00,337.0,10.2,337.0,11.7,13.53,47.59359,-54.27349
2024-04-10 13:14:00+00:00,335.0,11.23,327.0,17.37,13.76,47.59359,-54.27349
2024-04-10 13:24:00+00:00,347.0,8.54,358.0,10.38,13.76,47.59359,-54.27349
2024-04-10 13:34:00+00:00,340.0,9.48,347.0,10.74,13.76,47.59359,-54.27349
2024-04-10 13:44:00+00:00,356.0,10.85,354.0,12.18,13.76,47.59359,-54.27349
2024-04-10 13:54:00+00:00,340.0,10.8,341.0,12.65,13.76,47.59359,-54.27349
2024-04-10 14:04:00+00:00,337.0,8.86,346.0,10.7,13.76,47.59359,-54.27349
2024-04-10 14:14:01+00:00,343.0,9.04,349.0,12.74,13.6,47.59359,-54.27349
2024-04-10 14:24:01+00:00,1.0,10.44,10.0,11.49,13.6,47.59359,-54.27349
2024-04-10 14:34:01+00:00,333.0,8.17,334.0,9.58,13.6,47.59359,-54.27349
2024-04-10 14:44:01+00:00,356.0,8.11,359.0,9.06,13.6,47.59359,-54.27349
2024-04-10 14:54:01+00:00,337.0,9.21,334.0,10.34,13.6,47.59359,-54.27349
2024-04-10 15:04:01+00:00,339.0,10.46,337.0,12.07,13.6,47.59359,-54.27349
2024-04-10 15:14:00+00:00,338.0,11.08,338.0,12.24,13.53,47.59359,-54.27349
2024-04-10 15:24:00+00:00,343.0,9.25,340.0,10.3,13.53,47.59359,-54.27349
2024-04-10 15:34:00+00:00,337.0,9.44,336.0,10.58,13.53,47.59359,-54.27349
2024-04-10 15:44:00+00:00,333.0,9.65,328.0,11.27,13.53,47.59359,-54.27349
2024-04-10 15:54:00+00:00,328.0,7.58,324.0,8.81,13.53,47.59359,-54.27349
2024-04-10 16:04:00+00:00,324.0,7.76,315.0,8.82,13.53,47.59359,-54.27349
2024-04-10 16:14:00+00:00,339.0,10.44,342.0,12.29,13.53,47.59359,-54.27349
2024-04-10 16:24:00+00:00,327.0,9.02,313.0,11.16,13.53,47.59359,-54.27349
2024-04-10 16:34:00+00:00,327.0,7.3,325.0,8.59,13.53,47.59359,-54.27349
2024-04-10 16:44:00+00:00,331.0,7.98,325.0,9.03,13.53,47.59359,-54.27349
2024-04-10 16:54:00+00:00,324.0,8.25,324.0,9.17,13.53,47.59359,-54.27349
2024-04-10 17:04:00+00:00,3.0,6.96,13.0,8.09,13.53,47.59359,-54.27349
2024-04-10 17:14:00+00:00,356.0,7.12,354.0,7.63,13.68,47.59359,-54.27349
2024-04-10 17:24:00+00:00,12.0,5.38,18.0,6.75,13.68,47.59359,-54.27349
2024-04-10 17:34:00+00:00,2.0,6.05,1.0,7.33,13.68,47.59359,-54.27349
2024-04-10 17:44:00+00:00,5.0,4.47,5.0,4.98,13.68,47.59359,-54.27349
2024-04-10 17:54:00+00:00,11.0,4.92,13.0,5.73,13.68,47.59359,-54.27349
2024-04-10 18:04:00+00:00,0.0,4.42,356.0,5.06,13.68,47.59359,-54.27349
2024-04-10 18:14:00+00:00,25.0,3.76,36.0,4.18,13.6,47.59359,-54.27349
2024-04-10 18:24:00+00:00,10.0,5.63,20.0,6.32,13.6,47.59359,-54.27349
2024-04-10 18:34:00+00:00,16.0,8.7,18.0,9.35,13.6,47.59359,-54.27349
2024-04-10 18:44:00+00:00,12.0,6.41,4.0,7.41,13.6,47.59359,-54.27349
2024-04-10 18:54:00+00:00,12.0,7.06,18.0,8.18,13.6,47.59359,-54.27349
2024-04-10 19:04:00+00:00,2.0,7.31,3.0,8.66,13.6,47.59359,-54.27349
2024-04-10 19:14:00+00:00,0.0,6.66,357.0,7.58,13.6,47.59359,-54.27349
2024-04-10 19:24:00+00:00,1.0,7.23,1.0,8.15,13.6,47.59359,-54.27349
2024-04-10 19:34:00+00:00,0.0,8.12,357.0,9.09,13.6,47.59359,-54.27349
2024-04-10 19:44:00+00:00,354.0,7.06,351.0,8.16,13.6,47.59359,-54.27349
2024-04-10 19:54:00+00:00,346.0,6.5,343.0,7.36,13.6,47.59359,-54.27349
2024-04-10 20:04:00+00:00,351.0,7.35,351.0,8.56,13.6,47.59359,-54.27349
2024-04-10 20:14:00+00:00,344.0,8.91,343.0,9.64,13.6,47.59359,-54.27349
2024-04-10 20:24:00+00:00,338.0,9.22,337.0,10.12,13.6,47.59359,-54.27349
2024-04-10 20:34:00+00:00,344.0,7.23,341.0,8.45,13.6,47.59359,-54.27349
2024-04-10 20:44:00+00:00,346.0,9.08,348.0,9.97,13.6,47.59359,-54.27349
2024-04-10 20:54:00+00:00,350.0,8.36,353.0,8.89,13.6,47.59359,-54.27349
2024-04-10 21:04:00+00:00,344.0,9.71,345.0,11.0,13.6,47.59359,-54.27349
2024-04-10 21:14:01+00:00,340.0,7.48,340.0,8.58,13.21,47.59359,-54.27349
2024-04-10 21:24:01+00:00,347.0,7.44,351.0,8.48,13.21,47.59359,-54.27349
2024-04-10 21:34:01+00:00,339.0,6.16,337.0,6.89,13.21,47.59359,-54.27349
2024-04-10 21:44:01+00:00,338.0,5.53,338.0,6.0,13.21,47.59359,-54.27349
2024-04-10 21:54:01+00:00,333.0,4.42,335.0,5.46,13.21,47.59359,-54.27349
2024-04-10 22:04:01+00:00,339.0,6.0,338.0,7.03,13.21,47.59359,-54.27349
2024-04-10 22:14:01+00:00,0.0,6.09,4.0,6.94,12.81,47.59359,-54.27349
2024-04-10 22:24:01+00:00,349.0,4.69,344.0,5.38,12.81,47.59359,-54.27349
2024-04-10 22:34:01+00:00,4.0,5.14,5.0,5.59,12.81,47.59359,-54.27349
2024-04-10 22:44:01+00:00,0.0,5.84,9.0,6.38,12.81,47.59359,-54.27349
2024-04-10 22:54:01+00:00,3.0,4.5,7.0,5.12,12.81,47.59359,-54.27349
2024-04-10 23:04:01+00:00,5.0,4.09,2.0,4.77,12.81,47.59359,-54.27349
2024-04-10 23:14:00+00:00,1.0,4.52,4.0,5.2,12.33,47.59359,-54.27349
2024-04-10 23:24:00+00:00,0.0,4.53,1.0,5.08,12.33,47.59359,-54.27349
2024-04-10 23:34:00+00:00,359.0,5.36,2.0,5.87,12.33,47.59359,-54.27349
2024-04-10 23:44:00+00:00,341.0,3.81,337.0,4.39,12.33,47.59359,-54.27349
2024-04-10 23:54:00+00:00,341.0,4.78,343.0,5.14,12.33,47.59359,-54.27349
